Location: Darmstadt
(49.8706°N, 8.6494°E)
Time: 06:46:54
(UTC+01:00)

Meteor 2-16 Rocket - Pass Details

Date: 31 October 2020
Orbit: 942 x 956 km, 82.6° (Epoch: 02 December)

Event Time Altitude Azimuth Distance (km) Brightness Sun altitude
Rises 17:45:29 0° 349° (N) 3,620 7.5 -7.3°
Reaches altitude 10° 17:47:58 10° 350° (N) 2,672 6.8 -7.6°
Maximum altitude 17:54:06 89° 79° (E) 951 4.5 -8.6°
Drops below altitude 10° 18:00:12 10° 172° (S) 2,660 6.8 -9.6°
Sets 18:02:40 0° 172° (S) 3,602 7.5 -10.0°
